FW4335 Weather Reports


time (UTC)temp
F
wind
direction
speed
knots
gust
knots
rain 1hr
in
rain 24hr
in
rain mn
in
humidity
%
barometer
mb
20260506000030 74 341 0.9 3.5 0.00 0.00 0.00 54 1014.3
20260505234529 75 351 0.0 3.5 0.00 0.00 0.00 52 1014.3
20260505233031 75 44 0.0 2.6 0.00 0.00 0.00 53 1014.5
20260505231535 75 358 0.9 6.1 0.00 0.00 0.00 54 1014.5
20260505224531 75 352 1.7 6.1 0.00 0.00 0.00 53 1014.7
20260505221534 74 13 0.9 5.2 0.00 0.00 0.00 54 1014.9
20260505220030 74 332 0.9 4.3 0.00 0.00 0.00 55 1015.1
20260505214606 74 318 1.7 5.2 0.00 0.00 0.00 55 1015.2
20260505211536 74 3 0.9 4.3 0.00 0.00 0.00 55 1015.4
20260505210036 73 344 1.7 7.0 0.00 0.00 0.00 54 1015.5
20260505204531 74 12 0.9 5.2 0.00 0.00 0.00 53 1015.7
20260505203037 74 328 0.9 4.3 0.00 0.00 0.00 54 1015.8
20260505201529 73 336 1.7 4.3 0.00 0.00 0.00 56 1015.9
20260505194529 72 351 1.7 6.1 0.00 0.00 0.00 57 1016.1
20260505193031 71 2 1.7 7.0 0.00 0.00 0.00 57 1016.2
20260505190143 70 12 1.7 6.1 0.00 0.00 0.00 59 1016.3
20260505184529 70 345 1.7 6.1 0.00 0.00 0.00 60 1016.4
20260505183035 69 336 1.7 7.0 0.00 0.00 0.00 60 1016.4
20260505181531 69 340 1.7 5.2 0.00 0.00 0.00 61 1016.4
20260505180033 69 335 1.7 5.2 0.00 0.00 0.00 62 1016.4
20260505174530 69 330 1.7 7.8 0.00 0.00 0.00 62 1016.4
20260505173029 68 323 0.9 4.3 0.00 0.00 0.00 63 1016.4
20260505171533 67 341 1.7 7.0 0.00 0.00 0.00 64 1016.4
20260505170036 67 351 1.7 4.3 0.00 0.00 0.00 65 1016.4
20260505164644 67 344 0.9 5.2 0.00 0.00 0.00 65 1016.4
20260505161609 66 335 0.9 3.5 0.00 0.00 0.00 68 1016.4
20260505153035 64 18 0.9 3.5 0.00 0.00 0.00 72 1016.3
20260505151532 62 64 0.0 2.6 0.00 0.00 0.00 75 1016.4
20260505121608 49 241 0.0 2.6 0.00 0.00 0.00 94 1015.2
20260505120036 50 228 0.0 2.6 0.00 0.00 0.00 94 1015.2
20260505114605 50 208 0.9 2.6 0.00 0.00 0.00 93 1015.1
20260505111532 50 225 0.0 2.6 0.00 0.00 0.00 92 1014.9
20260505101604 52 203 0.0 2.6 0.00 0.00 0.00 90 1014.5
20260505100030 53 247 0.0 3.5 0.00 0.00 0.00 90 1014.5
20260505094530 53 247 0.0 2.6 0.00 0.00 0.00 89 1014.4
20260505093032 54 257 0.0 3.5 0.00 0.00 0.00 88 1014.3
20260505091605 54 220 0.0 2.6 0.00 0.00 0.00 86 1014.2
20260505090031 55 202 0.0 2.6 0.00 0.00 0.00 85 1014.0
20260505084536 55 202 0.0 2.6 0.00 0.00 0.00 85 1013.9
20260505083035 56 157 0.0 2.6 0.00 0.00 0.00 84 1013.9
20260505080033 57 224 0.0 3.5 0.00 0.00 0.00 80 1013.7
20260505074607 58 247 0.0 1.7 0.00 0.00 0.00 78 1013.6
20260505073030 59 247 0.0 2.6 0.00 0.00 0.00 76 1013.5
20260505071533 60 247 0.0 1.7 0.00 0.00 0.00 74 1013.4
20260505070031 63 247 0.0 0.9 0.00 0.00 0.00 70 1013.3
20260505064534 64 243 0.0 1.7 0.00 0.00 0.00 67 1013.1
20260505063034 65 218 1.7 4.3 0.00 0.00 0.00 66 1013.0
20260505061536 65 192 2.6 6.1 0.00 0.00 0.00 66 1013.0
20260505060030 64 191 2.6 7.0 0.00 0.00 0.00 66 1013.0
20260505053036 65 225 0.0 2.6 0.00 0.00 0.00 63 1012.9
20260505051535 66 235 0.9 7.0 0.00 0.00 0.00 60 1012.8
20260505041532 67 225 1.7 7.0 0.00 0.00 0.00 55 1012.2
20260505034529 68 207 2.6 7.8 0.00 0.00 0.00 52 1011.7
20260505031534 70 211 3.5 9.6 0.00 0.00 0.00 50 1011.3
20260505030037 71 208 3.5 7.8 0.00 0.00 0.00 50 1010.9
20260505024605 72 223 0.9 6.1 0.00 0.00 0.00 51 1010.7
20260505021605 75 38 0.0 2.6 0.00 0.00 0.00 47 1010.5
20260505020033 77 113 0.0 0.9 0.00 0.00 0.00 45 1010.5
20260505011530 78 308 0.0 3.5 0.00 0.00 0.00 46 1010.4
20260505010035 78 303 0.9 3.5 0.00 0.00 0.00 44 1010.4
20260505004529 79 308 1.7 6.1 0.00 0.00 0.00 44 1010.3
20260505003035 80 312 0.9 4.3 0.00 0.00 0.00 43 1010.2